MDT,Max TemperatureF,Mean TemperatureF,Min TemperatureF,Max Dew PointF,MeanDew PointF,Min DewpointF,Max Humidity, Mean Humidity, Min Humidity, Max Sea Level PressureIn, Mean Sea Level PressureIn, Min Sea Level PressureIn, Max VisibilityMiles, Mean VisibilityMiles, Min VisibilityMiles, Max Wind SpeedMPH, Mean Wind SpeedMPH, Max Gust SpeedMPH,PrecipitationIn, CloudCover, Events, WindDirDegrees
2013-5-1,44,34,23,21,16,9,88,57,25,30.69,30.45,30.20,10,10,10,18,6,23,0.00,6,,314
2013-5-2,62,39,15,16,11,6,80,46,11,30.72,30.52,30.30,10,10,10,16,5,23,0.00,0,,324
2013-5-3,51,43,35,37,29,17,79,58,36,30.27,30.22,30.18,10,10,4,16,6,26,0.04,7,Rain,349
2013-5-4,51,44,37,36,33,29,85,64,42,30.26,30.22,30.17,10,10,10,20,9,24,T,8,Rain,353
2013-5-5,63,46,28,34,29,23,92,58,23,30.19,30.06,29.96,10,10,10,23,6,28,0.00,1,,132
2013-5-6,70,50,29,32,25,18,92,54,15,30.03,29.92,29.81,10,10,10,13,4,20,0.00,0,,159
2013-5-7,71,52,32,33,29,25,78,49,19,29.96,29.89,29.83,10,10,10,23,8,31,0.00,2,,24
2013-5-8,71,52,33,36,32,28,82,52,22,30.11,30.05,30.00,10,10,10,23,6,28,T,2,,133
2013-5-9,72,53,34,37,32,25,89,53,17,30.22,30.13,30.07,10,10,10,25,5,32,T,2,Thunderstorm,61
2013-5-10,72,53,33,36,30,17,89,52,14,30.36,30.24,30.15,10,10,10,20,7,26,0.00,1,,17
2013-5-11,74,55,36,36,31,28,76,48,19,30.29,30.20,30.10,10,10,9,29,4,45,0.01,2,Rain,310
2013-5-12,81,60,38,37,33,29,76,46,16,30.17,30.05,29.94,10,10,10,20,6,28,0.00,1,,267
2013-5-13,81,62,42,41,32,20,76,44,12,30.03,29.89,29.71,10,10,9,31,9,40,0.00,0,,249
2013-5-14,69,55,41,39,26,16,63,39,14,29.96,29.90,29.83,10,10,10,22,9,29,0.00,1,,316
2013-5-15,68,52,36,35,27,24,70,45,19,30.02,29.92,29.83,10,10,10,21,6,35,0.00,1,,321
2013-5-16,59,52,44,44,40,34,89,66,43,29.93,29.86,29.79,10,10,5,20,3,28,0.20,6,Rain,278
2013-5-17,49,45,40,45,43,39,100,88,76,29.97,29.89,29.82,10,9,5,12,3,14,0.24,8,Rain,279
2013-5-18,56,49,42,43,40,36,100,74,47,30.04,29.96,29.88,10,10,7,22,7,29,0.03,8,Rain,321
2013-5-19,51,47,43,38,36,34,76,65,54,30.20,30.10,30.01,10,10,10,20,11,25,T,8,Rain,326
2013-5-20,57,51,44,40,38,36,76,62,47,30.26,30.18,30.09,10,10,10,16,7,20,0.01,7,Rain,307
2013-5-21,67,51,34,43,37,33,92,63,34,30.09,29.88,29.68,10,10,4,32,12,43,0.02,1,Rain,134
2013-5-22,60,47,33,44,38,34,96,72,47,29.93,29.75,29.62,10,8,2,32,15,43,0.47,5,Rain,125
2013-5-23,39,34,30,36,32,28,100,93,79,30.05,29.94,29.84,10,4,0,14,5,26,0.84,8,Fog-Rain-Snow,311
2013-5-24,58,45,32,35,31,25,96,63,30,30.06,29.97,29.88,10,8,2,23,6,30,0.02,6,Snow,222
2013-5-25,60,46,32,42,35,30,92,66,39,30.01,29.96,29.88,10,10,10,20,4,25,0.02,5,Rain,307
2013-5-26,63,48,32,40,37,32,100,68,36,30.04,29.95,29.85,10,10,7,21,5,31,0.10,3,Rain,149
2013-5-27,60,48,35,43,38,34,100,70,40,29.97,29.90,29.77,10,9,2,21,3,25,0.19,6,Rain,113
2013-5-28,57,49,41,43,40,36,96,73,50,29.82,29.77,29.71,10,10,5,17,7,23,0.18,7,Rain,323
2013-5-29,60,52,43,43,38,31,86,61,36,29.80,29.70,29.60,10,10,8,18,6,23,0.14,6,Rain-Thunderstorm,307
2013-5-30,55,48,40,39,33,27,89,62,35,30.02,29.87,29.77,10,10,10,24,12,35,0.01,6,Rain,322
2013-5-31,54,45,35,32,30,27,76,59,41,30.32,30.16,30.03,10,10,10,20,10,26,0.00,6,,324